Weather History for Corinth, MS

Change the Weather History Date:

Sunday, November 4, 2012

  Actual Average Record
Temperature  
Mean Temperature 48 °F -  
Max Temperature 60 °F 65 °F 83 °F (1935)
Min Temperature 35 °F 41 °F 16 °F (1991)
Degree Days  
Heating Degree Days 18    
Moisture  
Dew Point 38 °F    
Average Humidity 67    
Maximum Humidity 93    
Minimum Humidity 41    
Precipitation  
Precipitation 0.00 in - - ()
Sea Level Pressure  
Sea Level Pressure 30.14 in    
Wind  
Wind Speed 5 mph (NNW)    
Max Wind Speed 9 mph    
Max Gust Speed -    
Visibility 10 miles    
Events Rain    
Averages and records for this station are not official NWS values.
T = Trace of Precipitation, MM = Missing Value Source: NWS Daily Summary

Daily Weather History Graph

Daily Weather History Graph

Search for Another Location

Airport:

Trip Planner

Search our weather history database for the weather conditions in past years. The results will help you decide how hot, cold, wet, or windy it might be!

Date:

Astronomy

Nov. 04, 2012 Rise Set
Actual Time 6:18 AM CST 4:56 PM CST
Civil Twilight 5:52 AM CST 5:23 PM CST
Nautical Twilight 5:22 AM CST 5:53 PM CST
Astronomical Twilight 4:52 AM CST 6:22 PM CST
Moon 9:36 PM CST (11/4) 10:59 AM CST (11/4)
Length of Visible Light 11h 31m
Length of Day
10h 38m
Waning Gibbous, 72% of the Moon is Illuminated
Nov 4
Waning Gibbous
Nov 6
Last Quarter
Nov 13
New
Nov 20
First Quarter
Nov 28
Full

Hourly Weather History & Observations

Time (CST) Temp. Windchill Dew Point Humidity Pressure Visibility Wind Dir Wind Speed Gust Speed Precip Events Conditions
3:05 AM 50.0 °F - 42.8 °F 76% 30.08 in 10.0 mi NNW 6.9 mph - N/A   Clear
3:25 AM 50.0 °F - 41.0 °F 71% 30.08 in 10.0 mi NNW 6.9 mph - N/A   Clear
3:45 AM 48.2 °F - 39.2 °F 71% 30.09 in 10.0 mi North 6.9 mph - N/A   Clear
4:05 AM 48.2 °F - 41.0 °F 76% 30.10 in 10.0 mi NNW 3.5 mph - N/A   Clear
4:25 AM 48.2 °F - 41.0 °F 76% 30.11 in 10.0 mi NW 4.6 mph - N/A   Clear
4:45 AM 48.2 °F - 41.0 °F 76% 30.11 in 10.0 mi NNW 5.8 mph - N/A   Clear
5:05 AM 46.4 °F 43.5 °F 39.2 °F 76% 30.12 in 10.0 mi NNW 5.8 mph - N/A   Clear
5:25 AM 46.4 °F 44.3 °F 39.2 °F 76% 30.13 in 10.0 mi NNW 4.6 mph - N/A   Clear
5:45 AM 44.6 °F 40.7 °F 39.2 °F 81% 30.14 in 10.0 mi NNW 6.9 mph - N/A   Clear
6:05 AM 44.6 °F 40.7 °F 39.2 °F 81% 30.14 in 10.0 mi NNW 6.9 mph - N/A   Clear
6:25 AM 44.6 °F 41.4 °F 37.4 °F 76% 30.14 in 10.0 mi North 5.8 mph - N/A   Clear
6:45 AM 44.6 °F 41.4 °F 37.4 °F 76% 30.15 in 10.0 mi North 5.8 mph - N/A   Clear
7:05 AM 44.6 °F 42.2 °F 39.2 °F 81% 30.16 in 10.0 mi NNW 4.6 mph - N/A   Clear
7:25 AM 44.6 °F 41.4 °F 39.2 °F 81% 30.17 in 10.0 mi North 5.8 mph - N/A   Clear
7:45 AM 46.4 °F 43.5 °F 39.2 °F 76% 30.17 in 10.0 mi North 5.8 mph - N/A   Clear
8:05 AM 46.4 °F 43.5 °F 39.2 °F 76% 30.18 in 10.0 mi North 5.8 mph - N/A   Clear
8:25 AM 46.4 °F 42.9 °F 39.2 °F 76% 30.18 in 10.0 mi NNE 6.9 mph - N/A   Clear
8:45 AM 46.4 °F 45.2 °F 39.2 °F 76% 30.17 in 10.0 mi North 3.5 mph - N/A   Clear
9:05 AM 46.4 °F - 39.2 °F 76% 30.17 in 10.0 mi Calm Calm - N/A   Clear
9:25 AM 48.2 °F - 39.2 °F 71% 30.18 in 10.0 mi North 6.9 mph - N/A   Clear
9:45 AM 50.0 °F - 41.0 °F 71% 30.18 in 10.0 mi NNW 5.8 mph - N/A   Clear
10:05 AM 50.0 °F - 39.2 °F 66% 30.17 in 10.0 mi North 6.9 mph - N/A   Clear
10:25 AM 50.0 °F - 39.2 °F 66% 30.18 in 10.0 mi North 5.8 mph - N/A   Clear
10:45 AM 53.6 °F - 39.2 °F 58% 30.17 in 10.0 mi NNE 5.8 mph - N/A   Clear
11:05 AM 53.6 °F - 39.2 °F 58% 30.17 in 10.0 mi NNW 4.6 mph - N/A   Clear
11:25 AM 55.4 °F - 39.2 °F 54% 30.16 in 10.0 mi NNW 8.1 mph - N/A   Clear
11:45 AM 55.4 °F - 39.2 °F 54% 30.16 in 10.0 mi NNW 9.2 mph - N/A   Clear
12:05 PM 57.2 °F - 39.2 °F 51% 30.15 in 10.0 mi NNE 6.9 mph - N/A   Clear
12:25 PM 57.2 °F - 39.2 °F 51% 30.14 in 10.0 mi North 4.6 mph - N/A   Clear
12:45 PM 59.0 °F - 39.2 °F 48% 30.14 in 10.0 mi NNW 9.2 mph - N/A   Clear
1:05 PM 59.0 °F - 39.2 °F 48% 30.13 in 10.0 mi North 6.9 mph - N/A   Clear
1:25 PM 59.0 °F - 37.4 °F 45% 30.13 in 10.0 mi NNW 8.1 mph - N/A Rain Light Rain
1:45 PM 59.0 °F - 37.4 °F 45% 30.12 in 10.0 mi NW 8.1 mph - N/A   Clear
2:05 PM 60.8 °F - 37.4 °F 42% 30.12 in 10.0 mi NNW 9.2 mph - N/A   Clear
2:25 PM 59.0 °F - 35.6 °F 42% 30.12 in 10.0 mi North 4.6 mph - N/A Rain Light Rain
2:45 PM 59.0 °F - 35.6 °F 42% 30.12 in 10.0 mi North 9.2 mph - N/A   Clear
3:05 PM 59.0 °F - 35.6 °F 42% 30.11 in 10.0 mi North 4.6 mph - N/A   Clear
3:25 PM 59.0 °F - 35.6 °F 42% 30.11 in 10.0 mi NNW 6.9 mph - N/A   Clear
3:45 PM 59.0 °F - 35.6 °F 42% 30.12 in 10.0 mi NNW 9.2 mph - N/A   Clear
4:05 PM 57.2 °F - 33.8 °F 41% 30.12 in 10.0 mi North 6.9 mph - N/A   Clear
4:25 PM 55.4 °F - 33.8 °F 44% 30.12 in 10.0 mi North 5.8 mph - N/A   Clear
4:45 PM 55.4 °F - 35.6 °F 47% 30.13 in 10.0 mi NNW 5.8 mph - N/A   Clear
5:05 PM 53.6 °F - 35.6 °F 51% 30.13 in 10.0 mi NNW 5.8 mph - N/A   Clear
5:25 PM 51.8 °F - 33.8 °F 50% 30.13 in 10.0 mi NNW 4.6 mph - N/A   Clear
5:45 PM 51.8 °F - 35.6 °F 54% 30.14 in 10.0 mi Calm Calm - N/A   Clear
6:05 PM 50.0 °F - 35.6 °F 58% 30.14 in 10.0 mi Calm Calm - N/A   Clear
6:45 PM 48.2 °F - 35.6 °F 62% 30.14 in 10.0 mi Calm Calm - N/A   Clear
7:05 PM 44.6 °F - 35.6 °F 71% 30.14 in 10.0 mi Calm Calm - N/A   Clear
7:25 PM 44.6 °F - 35.6 °F 71% 30.14 in 10.0 mi Calm Calm - N/A   Clear
7:45 PM 41.0 °F - 35.6 °F 81% 30.13 in 10.0 mi Calm Calm - N/A   Clear
8:05 PM 41.0 °F - 35.6 °F 81% 30.14 in 9.0 mi Calm Calm - N/A   Clear
8:25 PM 39.2 °F 37.0 °F 35.6 °F 87% 30.15 in 10.0 mi WNW 3.5 mph - N/A   Clear
8:45 PM 39.2 °F 35.9 °F 35.6 °F 87% 30.15 in 10.0 mi WNW 4.6 mph - N/A   Clear
9:05 PM 37.4 °F - 35.6 °F 93% 30.15 in 10.0 mi Calm Calm - N/A   Clear
9:25 PM 39.2 °F - 35.6 °F 87% 30.15 in 10.0 mi Calm Calm - N/A   Clear
9:45 PM 37.4 °F 34.9 °F 35.6 °F 93% 30.15 in 10.0 mi WNW 3.5 mph - N/A   Clear
10:05 PM 37.4 °F - 35.6 °F 93% 30.15 in 9.0 mi Calm Calm - N/A   Clear
10:25 PM 35.6 °F - 33.8 °F 93% 30.15 in 10.0 mi Calm Calm - N/A   Clear
10:45 PM 35.6 °F - 33.8 °F 93% 30.15 in 10.0 mi Calm Calm - N/A   Clear